www.pogodaiklimat.ru

Погода и климат >> Архив погоды >> Пакистан >> Рахим Яр Хан


ПОГОДА в Рахим Яр Хан

  • Прогноз погоды в Рахим Яр Хан
  • Монитор погоды в Рахим Яр Хан

АРХИВ ПОГОДЫ в Рахим Яр Хан

Время (UTC), дата Ветер
(напр.,м/с)
 
Видим.   Явления Облачность Т
(С)
Тd
(С)
f
(%)
Тe
(С)
Тes
(С)
Комфортность P
(гПа)
Po
(гПа)
Тmin
(С)
Tmax
(С)
R
(мм)
R24
(мм)
S
(см)
15 13.06 штиль 0 4000 м мгла ясно +37.5 +18.8 34 +42 +42 опасность
перегрева
998.2 988.6
21 13.06 штиль 0 4000 м мгла ясно +32.0 +19.1 46 +37 +37 очень
душно
999.2 989.4
03 14.06 З 1 4000 м дым ясно +32.5 +23.2 58 +43 +50 опасность
перегрева
1001.9 992.1 +29.5
06 14.06 СВ 3 4000 м мгла ясно +37.5 +21.6 40 +45 +61 опасность
перегрева
1000.9 991.8
09 14.06 СВ 2 4000 м мгла ясно +39.5 +21.5 36 +47 +65 опасность
перегрева
999.7 990.7
12 14.06 штиль 0 4000 м мгла ясно +41.5 +22.4 34 +50 +56 опасность
перегрева
996.9 988.0 +42.4
15 14.06 штиль 0 4000 м мгла ясно +37.5 +23.4 45 +48 +48 опасность
перегрева
997.6 988.5
18 14.06 штиль 0 4000 м дым ясно +34.5 +23.1 52 +45 +45 опасность
перегрева
998.7 989.5
21 14.06 штиль 0 4000 м дым ясно +32.5 +21.5 52 +40 +40 очень
душно
998.6 989.4
00 15.06 штиль 0 4000 м дым ясно +30.0 +22.0 62 +39 +39 очень
душно
998.4 989.1
09 15.06 З 3 4000 м ясно +42.0 +20.2 29 +47 +63 опасность
перегрева
998.1 989.2
12 15.06 ЮЗ 2 4000 м ясно +43.0 +20.1 27 +48 +53 опасность
перегрева
995.6 986.7 +44.2
18 15.06 штиль 0 4000 м ясно +34.0 +22.5 51 +43 +43 опасность
перегрева
997.6 988.4
21 15.06 штиль 0 4000 м ясно +32.0 +20.9 52 +39 +39 очень
душно
998.3 989.1
00 16.06 штиль 0 4000 м ясно +29.0 +20.8 61 +36 +36 очень
душно
997.7 988.4
06 16.06 ЮЗ 3 4000 м ясно +36.5 +21.2 41 +44 +60 опасность
перегрева
1001.9 992.8
09 16.06 ЮЗ 1 4000 м ясно +40.0 +20.3 32 +45 +67 опасность
перегрева
1000.0 991.0
12 16.06 ЮЗ 2 4000 м ясно +41.5 +20.5 30 +47 +52 опасность
перегрева
997.5 988.5 +42.4
15 16.06 штиль 0 4000 м ясно +37.0 +23.6 46 +47 +47 опасность
перегрева
998.2 989.1
18 16.06 штиль 0 4000 м ясно +34.5 +22.2 49 +43 +43 опасность
перегрева
999.5 990.3
21 16.06 штиль 0 4000 м ясно +32.0 +21.8 55 +41 +41 опасность
перегрева
999.4 990.2
00 17.06 штиль 0 4000 м ясно +30.0 +21.1 59 +38 +38 очень
душно
998.8 989.5
03 17.06 ЮЗ 3 4000 м ясно +31.5 +22.9 60 +41 +47 опасность
перегрева
1001.3 992.0 +29.4
09 17.06 ЮЗ 5 4000 м пыльный позёмок ясно +40.0 +21.3 34 +47 +56 опасность
перегрева
998.7 989.7
12 17.06 ЮЗ 4 4000 м пыльный позёмок ясно +40.5 +21.9 35 +48 +51 опасность
перегрева
995.9 986.9 +41.6
15 17.06 штиль 0 4000 м ясно +36.5 +21.2 41 +44 +44 опасность
перегрева
995.8 986.7
18 17.06 ЮЗ 4 2000 м мгла ясно +34.5 +22.2 49 +43 +43 опасность
перегрева
998.2 989.0
21 17.06 ЮЗ 2 2000 м дым ясно +32.0 +21.8 55 +41 +41 опасность
перегрева
998.2 989.0
00 18.06 ЮЗ 1 2000 м дым ясно +30.0 +22.0 62 +39 +39 очень
душно
998.5 989.2
03 18.06 штиль 0 4000 м ясно +31.0 +23.9 66 +43 +51 опасность
перегрева
999.6 990.3 +28.8
15 18.06 С 7 1000 м пыльный позёмок 6/6 900 м
[Sc]
+35.0 +24.5 55 +48 +48 опасность
перегрева
997.6 988.5
18 18.06 СВ 3 4000 м 5/0
[Ac trans]
+30.0 +22.0 62 +39 +39 очень
душно
998.9 989.6
21 18.06 штиль 0 4000 м 3/0
[Ac trans]
+28.5 +21.9 67 +37 +37 очень
душно
998.6 989.3
00 19.06 штиль 0 4000 м 3/0
[Ac trans]
+27.0 +22.6 77 +36 +36 очень
душно
999.1 989.7
03 19.06 СВ 1 4000 м дым 3/0
[Ci fib]
+29.0 +24.0 74 +40 +47 очень
душно
1000.9 991.5 +26.7
06 19.06 штиль 0 4000 м дым ясно +34.5 +23.1 52 +45 +72 опасность
перегрева
1001.4 992.2
09 19.06 СВ 1 4000 м мгла ясно +38.0 +24.0 45 +49 +71 опасность
перегрева
999.2 990.1
15 19.06 штиль 0 4000 м дым ясно +33.5 +22.7 53 +43 +43 опасность
перегрева
998.4 989.2
18 19.06 штиль 0 4000 м ясно +31.5 +22.9 60 +41 +41 опасность
перегрева
999.9 990.6
21 19.06 штиль 0 4000 м 4/0
[Ac trans]
+30.0 +22.8 65 +40 +40 очень
душно
999.6 990.3
00 20.06 штиль 0 4000 м 4/0
[Ac trans]
+29.0 +23.2 71 +39 +39 очень
душно
999.9 990.6
06 20.06 З 3 4000 м ясно +36.5 +23.8 48 +47 +64 опасность
перегрева
1001.7 992.6

 

Местоположение метеостанции Рахим Яр Хан (Пакистан): широта 28.43 долгота 70.32 высота над уровнем моря 83 м.

В архиве по умолчанию представлена погода в Рахим Яр Хан за последнюю неделю. Архивные данные за месяц целиком и за предыдущие месяцы, начиная с января 2011 года, Вы можете получить, выбрав интересующий диапазон дат из раскрывающегося списка и нажав кнопку "Ввод!".


*Определитесь, кто Вы:
робот инопланетянин человек

Внимание! Время в таблицах - всемирное. Для получения местного времени необходимо прибавить поправку, которая равна 5 ч.

Смотрите также архив погоды в соседних городах и на ближайших метеорологических станциях:

Погода в Ханпуре (Пакистан) (43 км)
Погода в Рохри (Пакистан) (163 км)
Погода в Бархане (Пакистан) (171 км)
Погода в Суккуре (Пакистан) (172 км)
Погода в Бахавалпуре (Пакистан) (178 км)
Погода а Бахавалпур аэропорту (Пакистан) (178 км)
Погода в Джайсалмере (Раджастхан, Индия) (180 км)
Погода в Джейкобабаде (Пакистан) (182 км)
Погода в Дера Гази Хан (Пакистан) (183 км)
Погода в Мултане (Пакистан) (224 км)

Пояснения к столбцам:

Ветер - указаны скорость ветра в м/с - средняя за 10 мин, порывы в срок и между сроками (в фигурных скобках) и направление, откуда дует ветер: С - северный, СВ - северо-восточный, В - восточный, ЮВ - юго-восточный, Ю - южный, ЮЗ - юго-западный, З - западный, СЗ - северо-западный.
Видимость - горизонтальная дальность видимости в метрах или километрах. При видимости от 1 до 10 км при отсутствии осадков обычно наблюдается дымка, при ухудшении видимости до 1 км и менее - туман. В сухую погоду видимость может ухудшаться дымом, пылью или мглою.
Явления - указаны атмосферные явления, наблюдавшиеся в срок или в последний час перед сроком; фигурными скобками обозначены явления, наблюдавшиеся между сроками (за 1-3 часа до срока); квадратными скобками обозначены град или гололедные отложения с указанием их диаметра в мм.
Облачность - указаны через наклонную черту общая и нижняя облачность в баллах и высота нижней границы облаков в метрах; квадратными скобками обозначены формы облаков: Ci - перистые, Cs - перисто-слоистые, Cc - перисто-кучевые, Ac - высококучевые, As - высокослоистые, Sc - слоисто-кучевые, Ns - слоисто-дождевые, Cu - кучевые, Cb - кучево-дождевые. Подробнее классификацию облаков см. в Атласе облаков (PDF).
T - Температура воздуха - температура, измеренная на высоте 2 м над землей.
Td - Температура точки росы - температура, при понижении до которой содержащийся в воздухе водяной пар достигнет насыщения.
f - Относительная влажность воздуха - влажноcть воздуха, измеренная на высоте 2 м над землей.
Te - Эффективная температура - температура, которую ощущает одетый по сезону человек в тени. Характеристика душности погоды. При расчете учитывается влияние влажности воздуха и скорости ветра на теплоощущения человека.
Tes - Эффективная температура на солнце - температура, которую ощущает человек, с поправкой на солнечный нагрев. Характеристика знойности погоды. Зависит от высоты солнца над горизонтом, облачности и скорости ветра. Ночью, в пасмурную погоду, а также при ветре 12 м/с и более поправка равна нулю.
P - Атмосферное давление - приведенное к уровню моря атмосферное давление.
Po - Атмосферное давление - измеренное на уровне метеостанции атмосферное давление.
Tmin - Минимальная температура - минимум температуры воздуха на высоте 2 м над землей.
Tmax - Максимальная температура - максимум температуры воздуха на высоте 2 м над землей.
R - Количество осадков - Количество выпавших осадков за период времени, мм. При наведении курсора мыши на число - период времени, за который выпало указанное количество осадков.
R24 - Количество осадков - Количество выпавших осадков за 24 часа, мм.
S - Снежный покров - Высота снежного покрова, см. При наведении курсора мыши на число - состояние снежного покрова и степень покрытия местности в баллах.